Wind_Speed
40 40 38 37 36 35 34 33 32 32 32 32 32 32 33 34 34 34 35 36 37 37 38 38 39 39 39 39 39 39 40 40 40 40 41 41 41 41 41 42 41 41 41
42 41 40 39 38 37 36 35 34 35 34 34 34 35 36 36 36 36 37 38 39 39 40 40 39 39 39 39 40 40 40 41 41 41 41 41 41 42 42 42 42 42 42
43 42 42 41 40 39 38 37 37 37 36 36 37 37 37 37 37 38 39 40 40 40 40 40 40 40 40 40 40 41 41 41 41 41 41 41 41 42 42 42 42 42 43
45 44 44 43 42 40 40 39 38 38 38 39 39 39 38 38 39 40 41 41 41 40 40 40 40 40 41 41 41 41 41 41 41 41 41 41 42 42 41 42 42 42 43
46 45 44 43 42 42 41 41 40 40 39 39 39 40 39 40 40 41 41 41 41 41 41 41 41 41 41 41 40 40 40 40 40 41 41 41 42 42 41 41 42 43 43
47 45 44 43 43 42 42 42 42 41 40 40 40 40 40 40 40 40 41 41 40 40 41 41 41 40 40 40 40 40 40 40 41 41 41 42 41 41 41 42 42 43 43
45 44 44 43 43 42 41 41 41 41 41 41 40 39 39 39 40 40 40 40 40 40 40 40 40 40 40 39 39 39 39 40 40 40 41 41 41 41 42 42 43 43 43
45 45 44 44 43 42 42 41 41 40 40 40 39 39 39 39 39 39 40 40 40 40 40 39 39 39 38 38 38 38 39 39 40 40 40 41 41 42 43 44 44 43 43
44 44 44 44 43 43 42 41 41 40 40 39 39 39 38 39 39 39 39 39 39 39 38 38 38 38 38 38 38 38 39 39 39 40 41 41 42 43 44 44 44 44 45
41 41 42 42 42 42 41 41 40 40 39 39 38 38 38 38 38 38 38 38 38 38 37 37 36 36 37 37 37 38 38 39 40 41 41 42 42 43 44 44 45 46 47
39 39 40 40 40 40 40 40 39 38 38 37 37 37 37 36 36 36 37 37 36 36 36 35 35 36 36 36 37 38 38 39 39 40 41 42 43 44 45 46 47 48 48
38 38 38 38 38 38 38 38 37 37 36 36 35 35 35 35 35 35 35 35 35 34 34 34 35 35 35 36 37 38 38 39 40 41 41 42 44 45 46 47 48 49 50
37 37 37 37 36 36 36 36 35 35 35 34 34 34 33 34 34 34 33 33 33 33 33 33 33 34 35 36 37 38 39 39 40 41 42 43 44 45 47 48 49 51 51
35 36 36 36 35 35 34 34 34 33 33 33 33 32 32 32 32 31 32 32 32 32 32 32 32 33 34 35 37 38 39 40 41 41 43 44 45 46 48 49 50 51 52
35 35 35 35 34 33 33 33 32 32 31 31 31 30 30 30 30 30 30 30 30 31 31 31 32 33 34 35 36 37 39 40 41 42 44 45 46 47 49 50 51 53 54
34 35 35 34 33 33 32 32 31 30 29 29 29 29 29 29 29 29 29 29 30 30 31 31 32 33 34 35 36 38 39 40 41 43 44 46 47 48 50 51 53 54 56
34 34 34 34 33 32 32 31 30 29 28 28 28 28 28 28 28 28 28 29 29 30 30 31 32 33 34 35 37 38 40 41 42 43 45 47 48 49 51 52 54 56 58
35 35 34 34 33 32 31 30 29 28 28 28 28 28 27 27 27 28 28 29 29 30 31 32 33 34 35 37 38 39 41 42 43 45 46 47 49 50 52 54 56 58 60
37 35 34 33 33 32 31 30 29 28 28 28 28 27 27 27 27 28 28 29 30 30 31 32 33 35 36 37 38 40 41 42 44 45 47 48 50 52 54 56 58 60 62
37 36 35 34 33 32 31 30 29 29 28 28 27 27 27 27 27 27 28 29 30 31 32 32 34 35 36 37 39 40 41 43 44 46 47 49 51 53 56 58 59 61 63
38 37 36 35 33 32 31 30 29 29 28 28 27 27 27 27 27 28 29 29 30 31 32 33 34 35 37 38 39 40 41 43 45 46 48 50 52 55 57 59 61 63 65
38 37 36 35 34 32 31 30 30 29 28 28 28 28 28 27 28 29 29 30 31 32 32 33 34 36 37 38 39 41 42 44 45 47 49 51 53 56 58 60 62 64 66
38 37 35 35 34 33 32 31 30 29 28 28 28 28 28 28 28 29 29 30 31 32 33 34 35 36 37 39 40 41 43 45 46 48 51 53 54 57 59 61 63 65 67
37 37 36 35 34 33 32 31 30 29 28 28 28 28 28 28 29 29 30 30 31 32 33 34 35 36 37 39 40 42 44 45 47 50 52 53 56 58 60 62 64 66 66
36 35 35 34 33 32 31 31 30 29 28 28 28 28 29 29 29 29 30 31 32 32 33 35 36 37 38 39 40 43 44 46 49 51 53 55 57 59 61 63 65 65 64
35 35 34 33 33 32 31 30 29 29 28 28 28 29 29 29 29 30 31 31 32 33 34 35 36 37 38 39 41 43 45 48 50 52 54 56 58 60 62 63 63 63 62
Wind_Direction
236 237 239 240 241 243 244 246 249 251 253 256 258 261 263 266 269 273 275 277 279 281 282 283 285 286 287 288 289 290 291 291 292 293 294 294 295 296 296 297 297 297 297
236 239 240 241 243 245 246 248 250 252 255 257 258 261 263 267 270 273 275 276 278 280 281 283 285 286 287 288 289 290 291 292 292 293 293 294 295 296 297 297 298 298 298
238 239 241 243 244 246 248 250 251 253 255 257 259 262 265 267 270 273 274 276 278 279 281 283 284 285 286 288 289 290 291 292 292 293 294 294 295 296 297 298 298 298 299
240 241 243 244 246 247 248 250 252 253 255 258 260 263 265 267 269 271 273 276 278 279 280 282 284 285 286 287 288 290 290 291 292 293 294 294 296 297 297 297 298 298 299
241 243 244 246 247 247 249 250 252 254 256 258 260 262 265 267 268 270 272 274 276 277 279 282 283 285 286 287 289 289 290 291 292 293 294 295 296 296 296 297 299 300 300
241 243 244 245 246 247 248 250 252 254 256 258 260 262 264 265 267 269 271 273 275 277 279 281 283 284 285 287 288 289 289 290 291 293 294 295 296 296 297 298 300 301 301
240 242 243 244 246 247 249 251 252 254 256 258 259 261 263 265 267 268 270 272 275 277 278 280 281 283 284 286 288 289 289 290 291 292 293 295 296 296 297 299 300 301 301
239 240 241 243 245 247 249 251 253 254 255 257 259 260 262 265 266 268 270 272 273 275 277 279 281 283 284 286 287 289 289 290 290 291 294 296 296 297 298 299 300 301 301
239 240 242 243 244 246 248 250 252 253 255 257 259 260 262 264 266 268 269 271 272 274 276 279 280 282 284 285 287 288 288 289 290 292 294 295 296 297 298 299 300 301 301
238 239 241 242 243 245 247 249 251 252 255 257 259 260 262 263 265 267 269 271 272 274 276 278 279 281 283 285 286 287 288 289 289 291 293 295 296 297 298 299 300 301 302
236 238 239 240 242 244 245 247 249 251 254 256 258 259 261 263 265 267 269 270 272 274 275 277 279 281 283 284 286 288 289 289 290 291 294 295 296 297 298 299 300 301 302
234 236 238 239 240 242 244 246 248 250 252 255 257 258 260 263 265 267 268 270 272 274 275 277 279 281 283 285 287 288 289 291 292 293 294 295 296 297 298 299 301 302 302
232 234 236 237 239 241 243 245 247 249 251 254 256 258 260 263 265 267 269 270 272 274 275 277 279 281 283 285 288 289 291 292 293 294 294 295 296 297 298 299 301 302 302
230 232 234 236 237 239 241 244 246 248 251 252 255 257 260 262 264 266 268 270 272 273 275 277 279 282 284 286 288 290 292 293 294 295 295 296 297 297 299 300 301 302 302
227 230 232 234 236 238 240 242 245 248 250 253 255 257 260 262 264 266 268 270 271 273 276 278 280 283 286 287 289 290 292 294 294 295 296 296 297 298 300 301 301 302 302
226 229 231 233 235 237 239 241 244 247 249 252 255 257 259 262 264 266 268 270 272 274 276 279 281 284 286 288 289 291 292 294 295 295 296 297 298 299 300 301 302 302 302
225 228 229 231 232 234 237 241 243 246 249 252 254 256 259 262 264 266 268 270 272 275 277 280 282 284 286 288 290 291 293 294 295 296 297 298 299 299 300 301 302 302 303
223 225 227 228 230 233 236 240 243 246 249 252 254 257 259 262 265 267 269 271 273 276 279 281 283 285 287 288 290 291 293 294 295 296 297 298 299 300 301 302 302 303 304
222 223 225 227 229 232 236 239 243 246 249 251 254 257 260 263 266 268 270 272 274 277 280 282 284 286 288 289 291 293 295 295 296 297 298 299 300 301 301 302 303 304 304
223 224 225 227 230 233 236 240 243 246 249 252 255 258 261 264 267 269 271 273 276 279 281 283 285 287 289 291 293 294 295 296 297 298 299 300 301 302 302 303 304 305 305
223 224 225 228 230 233 237 240 244 246 249 253 255 258 261 265 268 270 272 275 278 280 283 285 287 288 290 292 294 295 296 297 298 299 300 301 302 303 304 305 305 306 306
223 225 226 228 231 233 237 240 243 247 250 253 255 258 262 266 269 271 274 277 280 282 284 286 288 290 292 293 295 296 297 299 300 301 302 303 304 304 305 306 306 307 307
224 226 228 229 231 234 237 240 243 247 250 253 256 260 263 267 270 273 276 279 281 283 286 288 290 291 293 295 296 297 298 300 301 302 303 304 305 306 307 307 308 308 309
224 226 228 230 232 234 236 239 243 247 250 253 257 260 264 268 271 275 277 280 282 285 287 289 291 293 294 296 297 299 300 302 303 304 305 305 306 308 308 309 309 309 310
226 227 228 230 232 234 237 240 244 247 250 254 258 262 266 270 273 276 279 281 284 286 288 291 293 294 296 297 299 301 302 303 305 306 306 307 308 309 309 309 310 310 311
226 227 229 231 233 235 237 240 244 247 251 255 260 265 269 271 274 277 280 283 285 287 290 293 294 296 298 299 301 302 303 305 306 307 307 308 309 310 310 310 311 311 311
Height
5762 5765 5769 5773 5776 5780 5782 5785 5787 5789 5790 5792 5793 5794 5795 5795 5795 5796 5795 5795 5794 5793 5792 5791 5790 5788 5786 5785 5783 5781 5779 5776 5774 5772 5770 5767 5764 5761 5759 5756 5753 5750 5747
5752 5757 5760 5764 5768 5772 5775 5778 5780 5781 5783 5785 5786 5787 5787 5788 5788 5788 5788 5787 5786 5785 5784 5783 5782 5780 5778 5777 5775 5773 5770 5768 5766 5764 5762 5759 5757 5753 5750 5748 5745 5742 5739
5743 5747 5751 5755 5759 5763 5767 5769 5771 5773 5775 5776 5777 5778 5779 5780 5780 5780 5779 5778 5777 5777 5776 5775 5773 5772 5770 5768 5766 5765 5762 5760 5758 5756 5754 5751 5748 5745 5742 5739 5736 5733 5730
5733 5738 5742 5746 5750 5754 5757 5760 5762 5764 5766 5767 5769 5770 5771 5772 5772 5771 5770 5770 5769 5768 5767 5766 5765 5763 5762 5760 5758 5756 5754 5752 5750 5747 5745 5742 5739 5737 5734 5731 5728 5724 5721
5723 5728 5733 5737 5740 5744 5747 5751 5753 5755 5757 5759 5760 5761 5762 5763 5763 5762 5761 5761 5760 5760 5759 5757 5756 5755 5753 5751 5750 5748 5746 5744 5741 5739 5736 5733 5731 5728 5725 5723 5719 5716 5712
5714 5719 5723 5726 5730 5734 5737 5741 5743 5746 5748 5750 5751 5752 5753 5753 5753 5753 5752 5752 5752 5751 5750 5749 5748 5746 5745 5743 5741 5739 5737 5735 5733 5730 5728 5725 5722 5720 5717 5714 5711 5707 5703
5704 5709 5713 5717 5721 5724 5728 5731 5734 5736 5738 5740 5742 5743 5744 5744 5744 5744 5744 5744 5743 5742 5741 5740 5739 5738 5736 5735 5733 5731 5729 5727 5724 5722 5719 5717 5714 5711 5708 5705 5702 5698 5694
5694 5699 5703 5707 5711 5715 5718 5721 5724 5727 5729 5730 5732 5733 5734 5735 5735 5735 5735 5735 5734 5734 5733 5732 5731 5729 5728 5726 5725 5723 5721 5719 5716 5714 5711 5708 5705 5702 5699 5696 5692 5689 5686
5684 5689 5693 5698 5702 5705 5709 5712 5714 5717 5719 5721 5723 5724 5725 5726 5726 5726 5726 5726 5726 5725 5724 5723 5722 5721 5720 5718 5717 5715 5713 5711 5708 5705 5703 5700 5697 5693 5690 5686 5683 5680 5676
5674 5679 5684 5688 5692 5695 5699 5702 5705 5707 5710 5712 5713 5715 5716 5717 5717 5717 5717 5717 5717 5716 5715 5715 5714 5713 5711 5710 5708 5707 5705 5703 5700 5697 5694 5691 5688 5684 5680 5677 5673 5669 5666
5665 5670 5674 5678 5682 5686 5689 5693 5696 5698 5701 5703 5704 5706 5707 5707 5708 5708 5709 5708 5708 5708 5707 5706 5706 5705 5703 5702 5700 5699 5696 5694 5691 5689 5686 5682 5679 5675 5671 5667 5663 5659 5655
5657 5661 5665 5669 5673 5677 5680 5683 5686 5689 5691 5693 5695 5697 5698 5699 5699 5700 5700 5700 5700 5699 5699 5698 5698 5697 5695 5694 5692 5690 5688 5686 5683 5680 5677 5673 5670 5666 5662 5657 5653 5648 5644
5648 5653 5657 5661 5665 5668 5672 5675 5678 5680 5683 5685 5686 5688 5689 5690 5691 5691 5691 5691 5691 5691 5691 5690 5689 5688 5687 5686 5684 5682 5680 5677 5674 5671 5668 5664 5660 5656 5652 5647 5642 5637 5632
5640 5644 5648 5652 5656 5660 5663 5666 5669 5672 5674 5676 5678 5680 5681 5682 5683 5683 5683 5683 5683 5683 5683 5682 5681 5680 5679 5677 5675 5673 5671 5668 5665 5662 5658 5654 5650 5646 5642 5637 5631 5626 5621
5632 5636 5640 5644 5648 5651 5655 5658 5661 5664 5666 5668 5670 5672 5673 5674 5674 5675 5675 5675 5675 5675 5675 5674 5673 5672 5671 5669 5667 5664 5662 5659 5656 5652 5648 5644 5640 5636 5631 5626 5620 5614 5609
5624 5628 5632 5636 5640 5643 5647 5650 5653 5656 5658 5660 5662 5663 5665 5666 5666 5667 5667 5667 5667 5667 5667 5666 5665 5664 5662 5661 5658 5656 5653 5650 5646 5643 5638 5634 5630 5625 5619 5614 5608 5602 5596
5616 5620 5625 5629 5632 5636 5639 5642 5645 5648 5650 5652 5654 5656 5657 5658 5659 5659 5659 5660 5659 5659 5659 5658 5657 5656 5654 5652 5649 5647 5644 5640 5637 5633 5628 5624 5619 5613 5608 5602 5596 5589 5582
5608 5612 5617 5621 5625 5628 5631 5635 5638 5640 5643 5645 5646 5648 5649 5650 5651 5651 5652 5652 5652 5651 5651 5650 5649 5647 5645 5643 5640 5637 5634 5631 5627 5622 5618 5613 5608 5602 5597 5591 5584 5576 5569
5600 5604 5609 5613 5617 5621 5624 5627 5630 5633 5635 5637 5639 5640 5642 5643 5643 5644 5644 5644 5644 5643 5643 5641 5640 5638 5636 5634 5631 5628 5624 5621 5616 5612 5607 5602 5597 5591 5585 5579 5572 5564 5555
5591 5596 5601 5605 5610 5614 5617 5621 5623 5626 5628 5630 5631 5633 5634 5635 5636 5636 5636 5636 5636 5635 5634 5633 5631 5629 5627 5624 5622 5618 5615 5611 5606 5601 5596 5591 5585 5578 5571 5564 5557 5550 5541
5583 5588 5593 5598 5602 5606 5610 5614 5616 5619 5621 5623 5624 5626 5627 5628 5628 5629 5629 5628 5628 5627 5626 5624 5622 5620 5618 5615 5612 5608 5604 5600 5595 5590 5585 5579 5572 5566 5558 5551 5543 5534 5526
5576 5581 5586 5591 5595 5599 5603 5606 5609 5612 5614 5616 5617 5618 5619 5620 5621 5621 5620 5620 5619 5618 5617 5615 5613 5611 5608 5605 5602 5598 5594 5590 5585 5579 5573 5567 5560 5553 5545 5537 5528 5519 5510
5569 5574 5579 5584 5588 5592 5596 5599 5602 5604 5607 5608 5610 5611 5612 5612 5613 5613 5612 5612 5611 5610 5608 5606 5604 5601 5598 5595 5592 5588 5583 5579 5574 5568 5561 5554 5547 5539 5531 5522 5513 5504 5494
5561 5566 5572 5576 5581 5585 5589 5592 5594 5597 5599 5601 5602 5603 5604 5605 5605 5605 5604 5604 5602 5601 5599 5597 5595 5592 5589 5585 5581 5577 5573 5568 5562 5556 5549 5542 5534 5526 5517 5508 5499 5489 5479
5554 5559 5564 5569 5573 5577 5581 5584 5587 5590 5592 5593 5595 5596 5596 5597 5597 5597 5596 5595 5594 5592 5590 5588 5585 5582 5579 5575 5571 5567 5562 5556 5550 5543 5536 5529 5521 5512 5503 5493 5484 5474 5464
5547 5552 5557 5562 5566 5570 5573 5577 5580 5582 5584 5586 5587 5588 5589 5589 5589 5588 5587 5586 5585 5583 5581 5578 5576 5572 5569 5565 5561 5556 5550 5544 5538 5531 5524 5516 5507 5498 5489 5479 5469 5459 5450